Temp
64 64 64 63 63 63 63 63 62 62 62 63 62 62 61 60 60 60 60 60 60 61 61 60 60 60 56 48 50 68 68 72 69 66 63 60 59 57 52 56 59 56 61 65 66 63 61
63 63 63 63 63 63 63 62 61 62 61 62 62 61 60 60 60 59 59 60 60 60 59 59 58 58 52 41 66 70 68 63 66 63 61 63 61 63 58 58 56 60 62 63 64 61 62
63 63 63 63 63 62 62 62 61 61 61 62 61 61 60 60 59 59 59 59 60 60 60 59 60 58 50 48 68 66 63 62 61 63 59 66 67 62 60 55 62 61 55 58 60 60 59
62 62 62 62 62 62 61 61 60 61 61 61 61 60 60 59 59 58 58 59 60 59 59 60 59 56 44 64 66 64 62 59 61 61 62 68 69 63 60 61 57 54 52 46 58 60 61
62 62 62 62 62 61 61 61 60 60 60 60 60 60 59 59 58 57 59 59 59 59 59 60 54 50 44 66 57 63 65 56 59 58 62 68 64 56 58 50 45 48 41 45 51 61 59
61 62 61 61 61 61 61 60 60 59 60 59 59 59 58 58 58 58 58 58 59 58 58 61 56 45 52 51 56 61 62 58 52 55 54 55 53 47 48 45 35 40 41 47 48 56 58
61 61 61 61 61 60 60 60 60 59 59 59 59 58 58 58 58 58 56 55 49 47 53 47 47 47 51 54 58 56 58 51 50 51 44 51 43 39 44 49 51 50 47 46 53 58 54
60 60 60 60 60 60 60 59 59 59 58 58 58 58 58 57 58 58 56 50 49 50 41 53 52 52 54 51 43 51 56 44 42 42 49 44 39 48 53 53 52 51 47 47 53 55 53
60 60 60 60 60 60 59 59 59 59 58 58 57 57 58 57 57 55 54 50 56 56 40 47 50 49 47 48 41 46 52 48 41 42 45 41 46 53 51 51 49 48 45 48 47 50 51
60 59 59 60 59 59 59 58 58 58 58 57 57 57 57 57 52 55 51 57 57 57 32 37 41 43 46 44 39 51 55 50 45 44 48 43 49 47 45 46 52 44 53 52 49 43 36
59 59 59 59 59 59 58 58 58 58 57 56 56 56 57 56 52 51 53 58 57 49 20 38 39 50 46 38 44 45 55 50 43 42 44 38 42 43 39 45 53 49 54 49 47 43 41
59 59 59 59 59 58 58 58 58 57 57 56 56 56 56 57 54 56 58 57 50 31 24 33 38 38 39 43 46 48 48 51 53 43 44 40 47 46 44 47 47 55 48 46 45 42 30
58 58 58 58 58 58 58 58 57 57 56 56 55 56 54 58 50 59 56 47 30 27 38 34 35 40 40 40 40 41 40 42 39 33 33 37 37 43 44 42 49 48 40 30 29 28 29
58 58 58 58 58 58 57 57 57 57 56 55 55 55 57 59 60 57 49 37 27 35 33 40 42 45 39 42 39 41 43 40 46 41 34 32 29 36 41 42 39 44 41 29 25 25 29
57 57 57 57 57 57 57 57 56 56 56 55 55 57 56 58 59 54 42 31 30 33 37 36 45 39 39 45 44 42 43 43 44 45 35 33 31 39 41 45 44 40 35 42 33 33 26
57 57 57 57 57 57 56 56 56 56 55 55 50 53 54 59 58 49 40 33 34 40 43 44 40 46 38 42 42 43 44 49 46 51 52 42 31 37 41 45 44 43 48 33 29 21 24
56 57 57 57 56 56 56 56 56 55 55 55 50 49 53 59 55 46 34 37 41 49 48 43 45 44 45 44 47 45 44 48 51 49 51 48 41 35 40 36 36 37 36 38 37 33 25
56 56 57 56 56 56 55 55 55 55 55 53 49 41 55 56 43 47 42 45 44 49 52 48 49 50 48 47 45 44 43 47 53 52 45 47 41 32 38 46 49 45 44 42 32 31 29
56 56 56 55 55 55 55 55 55 55 55 47 42 48 55 54 39 42 46 47 49 49 49 49 48 50 51 47 41 45 45 50 52 50 46 47 36 27 29 39 43 39 44 45 39 35 30
55 56 55 55 55 55 55 54 54 54 55 49 45 37 45 51 51 46 45 44 46 49 50 51 50 51 48 45 49 43 44 48 50 50 50 50 40 34 27 33 38 32 39 41 34 25 30
55 55 55 55 55 55 54 54 54 54 54 50 47 39 42 36 44 45 48 48 46 46 51 52 48 49 48 42 44 43 46 45 49 48 47 45 31 31 38 41 34 34 38 38 27 34 27
55 55 55 55 55 55 54 54 54 54 54 50 41 38 42 40 44 45 45 47 45 48 47 47 46 50 49 45 45 43 46 45 43 46 44 44 30 32 30 41 39 32 39 39 39 39 38
55 55 55 55 55 54 54 53 54 53 53 46 47 47 40 41 43 44 42 45 46 48 49 51 49 48 47 47 50 51 51 51 49 44 42 41 33 29 25 35 35 28 37 40 39 42 41
55 55 55 55 54 54 53 53 53 53 52 48 46 43 37 36 40 40 44 46 45 48 45 50 51 48 48 53 53 51 50 49 48 45 48 41 37 34 27 29 19 39 45 46 43 45 46
54 55 55 54 54 53 53 53 53 53 53 48 48 42 37 32 40 41 41 43 46 50 46 48 49 51 53 48 45 41 39 43 44 44 44 46 41 33 26 26 36 39 42 41 40 41 47
55 54 55 54 53 53 53 53 53 53 53 49 48 48 42 34 37 42 38 41 39 43 44 46 50 52 48 44 40 34 31 37 36 37 43 44 46 35 31 26 25 39 46 50 47 36 48
55 54 54 54 53 53 53 53 53 52 52 49 46 49 43 34 42 41 37 35 40 43 41 45 45 44 46 40 35 32 34 44 35 35 33 34 35 32 33 31 34 46 48 50 34 37 48
55 54 54 53 52 52 52 53 53 53 52 49 45 49 42 36 39 43 43 38 37 38 37 44 44 44 41 38 35 37 34 40 38 40 40 37 34 34 35 30 23 48 47 40 44 49 50
54 54 53 52 52 52 52 53 53 52 52 51 42 49 48 38 38 45 46 47 45 42 36 39 42 47 46 40 39 39 37 38 37 34 41 33 39 37 37 36 46 48 46 49 50 47 47
MSLP
1021.50 1021.08 1020.71 1020.27 1019.81 1019.29 1018.76 1018.24 1017.84 1017.36 1016.88 1016.27 1015.66 1015.10 1014.68 1014.38 1014.09 1013.82 1013.79 1013.68 1013.61 1013.51 1013.42 1013.38 1013.31 1013.35 1013.67 1013.12 1011.20 1009.97 1009.86 1009.93 1010.68 1011.38 1011.52 1011.74 1011.51 1011.98 1011.75 1011.56 1011.62 1011.30 1010.70 1010.61 1010.61 1010.72 1010.80
1021.58 1021.19 1020.75 1020.34 1019.80 1019.41 1018.82 1018.48 1017.98 1017.35 1016.79 1016.09 1015.46 1014.85 1014.38 1013.88 1013.49 1013.28 1013.32 1013.28 1013.27 1013.23 1013.25 1013.21 1013.28 1013.45 1013.41 1012.03 1010.55 1009.95 1010.11 1010.66 1010.40 1010.97 1011.20 1011.18 1010.92 1011.22 1011.55 1011.22 1011.45 1011.22 1011.01 1010.71 1010.71 1011.20 1011.25
1021.60 1021.24 1020.70 1020.22 1019.90 1019.44 1018.97 1018.52 1017.85 1017.28 1016.76 1015.98 1015.30 1014.66 1013.97 1013.36 1012.94 1012.66 1012.86 1012.99 1013.01 1012.94 1013.03 1013.16 1013.15 1013.26 1012.73 1011.31 1010.10 1010.34 1010.59 1010.72 1011.15 1010.96 1010.99 1010.79 1010.77 1011.04 1011.21 1011.51 1011.36 1011.38 1011.48 1011.56 1010.89 1011.31 1011.73
1021.64 1021.20 1020.75 1020.40 1019.79 1019.42 1018.94 1018.48 1017.96 1017.13 1016.53 1016.00 1015.24 1014.47 1013.64 1012.78 1012.38 1012.33 1012.56 1012.79 1012.82 1012.91 1012.89 1012.94 1013.09 1013.03 1012.06 1010.56 1010.43 1010.53 1010.76 1011.06 1011.29 1011.50 1011.27 1010.73 1010.69 1011.06 1011.16 1011.57 1011.55 1011.72 1012.06 1011.88 1011.26 1011.57 1012.01
1021.64 1021.23 1020.89 1020.24 1019.93 1019.46 1018.85 1018.35 1017.94 1017.39 1016.57 1015.92 1015.18 1014.34 1013.45 1012.44 1012.20 1012.40 1012.60 1012.74 1012.77 1012.72 1012.65 1012.71 1012.99 1012.85 1011.23 1009.69 1010.28 1010.32 1010.32 1010.92 1011.11 1011.62 1011.17 1010.87 1010.90 1011.39 1011.61 1011.84 1012.25 1012.03 1011.89 1011.81 1011.47 1011.41 1011.94
1021.64 1021.31 1020.82 1020.39 1019.97 1019.42 1018.81 1018.34 1017.73 1017.33 1016.64 1015.99 1015.20 1014.42 1013.69 1013.01 1012.72 1012.67 1012.67 1012.60 1012.43 1012.53 1012.38 1012.10 1012.52 1012.82 1011.10 1010.30 1010.40 1010.03 1010.45 1010.99 1011.52 1010.97 1011.43 1011.38 1011.47 1011.80 1011.83 1011.97 1011.54 1011.59 1011.85 1011.43 1011.03 1010.99 1011.61
1021.58 1021.16 1020.72 1020.30 1019.94 1019.48 1018.96 1018.45 1017.87 1017.16 1016.60 1016.05 1015.24 1014.68 1014.12 1013.64 1013.38 1013.09 1012.82 1012.43 1012.72 1012.50 1011.94 1011.55 1011.70 1011.48 1010.76 1011.23 1010.78 1010.31 1010.74 1011.82 1012.50 1011.12 1009.48 1010.84 1011.41 1010.77 1010.03 1010.77 1011.04 1011.08 1011.55 1011.35 1010.94 1010.82 1011.57
1021.49 1021.18 1020.68 1020.41 1019.87 1019.37 1018.87 1018.37 1017.78 1017.22 1016.63 1016.05 1015.33 1014.85 1014.35 1014.01 1013.72 1013.37 1012.98 1012.45 1012.89 1013.41 1012.28 1011.27 1011.33 1011.36 1011.28 1011.84 1011.34 1010.46 1011.29 1012.47 1012.20 1010.37 1010.94 1011.85 1011.01 1011.18 1011.44 1011.52 1011.23 1010.76 1010.89 1010.93 1010.73 1011.16 1011.67
1021.50 1021.11 1020.83 1020.45 1020.06 1019.55 1018.95 1018.34 1018.02 1017.25 1016.56 1016.06 1015.53 1014.91 1014.48 1013.99 1013.68 1013.51 1013.02 1013.39 1013.52 1013.19 1012.68 1011.57 1011.57 1011.53 1012.00 1011.92 1011.66 1010.39 1010.12 1010.86 1010.12 1010.55 1010.56 1011.33 1011.22 1011.31 1011.45 1011.21 1010.95 1010.68 1010.63 1010.53 1011.03 1011.96 1012.27
1021.54 1021.22 1021.06 1020.53 1020.05 1019.49 1019.06 1018.48 1017.81 1017.26 1016.59 1015.91 1015.36 1014.91 1014.40 1013.84 1013.85 1013.29 1013.28 1013.52 1013.51 1013.18 1012.78 1012.31 1011.94 1012.32 1012.43 1012.19 1011.79 1010.74 1009.80 1009.81 1009.32 1010.12 1011.02 1012.00 1011.94 1011.80 1012.15 1011.58 1010.89 1010.61 1010.50 1010.62 1011.33 1012.51 1012.78
1021.52 1021.25 1020.89 1020.46 1020.04 1019.56 1019.03 1018.37 1017.80 1017.14 1016.45 1015.69 1015.13 1014.61 1014.28 1014.00 1013.72 1013.26 1013.78 1013.20 1013.55 1013.58 1013.39 1012.76 1012.45 1012.59 1012.33 1012.52 1011.33 1010.83 1010.30 1009.91 1010.08 1010.97 1011.30 1012.83 1012.47 1012.49 1013.00 1012.21 1011.30 1010.95 1010.81 1011.57 1012.37 1013.03 1013.22
1021.52 1021.22 1020.80 1020.45 1020.07 1019.64 1019.10 1018.54 1017.93 1017.08 1016.49 1015.83 1015.03 1014.48 1014.02 1013.28 1013.51 1013.49 1013.50 1013.24 1013.39 1013.43 1013.06 1013.04 1013.00 1012.48 1012.14 1010.92 1010.58 1010.68 1010.59 1010.91 1010.41 1011.22 1012.08 1013.22 1013.44 1013.75 1013.55 1013.44 1012.71 1011.63 1012.02 1012.81 1013.43 1013.88 1014.08
1021.44 1021.19 1020.98 1020.65 1020.11 1019.60 1019.10 1018.33 1017.69 1017.01 1016.31 1015.61 1014.72 1014.12 1013.90 1013.37 1013.21 1013.18 1013.40 1013.47 1013.62 1013.39 1013.34 1012.97 1011.61 1011.73 1011.54 1011.32 1011.20 1010.99 1010.77 1010.53 1010.50 1011.65 1013.29 1014.10 1014.74 1014.76 1014.39 1013.95 1012.97 1012.51 1012.88 1014.07 1014.83 1014.75 1013.97
1021.51 1021.26 1020.99 1020.63 1020.17 1019.55 1019.00 1018.33 1017.36 1016.95 1016.13 1015.15 1014.04 1013.68 1013.16 1012.80 1013.00 1013.14 1013.32 1013.51 1013.18 1013.69 1013.54 1012.69 1011.70 1010.90 1010.83 1010.86 1011.43 1010.84 1010.43 1010.43 1010.72 1011.20 1013.03 1014.10 1015.54 1015.48 1015.18 1014.44 1013.46 1013.01 1012.78 1013.45 1013.82 1014.31 1014.27
1021.36 1021.10 1020.77 1020.56 1020.15 1019.58 1019.13 1018.42 1017.71 1016.41 1015.66 1014.77 1013.56 1012.79 1012.76 1012.43 1012.76 1013.03 1013.41 1013.41 1013.89 1013.72 1013.20 1012.45 1011.02 1010.61 1010.45 1010.05 1010.09 1010.46 1010.12 1010.25 1010.89 1011.44 1012.25 1013.34 1014.87 1015.53 1015.43 1014.48 1014.13 1014.13 1013.69 1013.65 1013.73 1013.67 1013.99
1021.32 1021.09 1020.86 1020.51 1020.07 1019.52 1019.01 1018.33 1017.48 1016.52 1015.68 1014.76 1013.92 1012.72 1012.31 1012.44 1012.52 1012.81 1012.44 1013.30 1013.37 1013.05 1012.33 1011.55 1010.29 1009.41 1009.42 1009.13 1009.05 1009.21 1009.58 1009.86 1010.17 1010.46 1010.55 1012.02 1013.62 1015.02 1015.13 1014.79 1014.75 1014.41 1013.93 1014.16 1014.26 1014.59 1014.18
1021.21 1021.00 1020.89 1020.53 1020.19 1019.63 1019.12 1018.53 1017.67 1016.66 1015.42 1014.34 1013.71 1012.55 1012.35 1012.37 1012.44 1012.22 1012.31 1012.10 1012.20 1011.94 1011.62 1010.50 1009.02 1008.65 1008.39 1008.35 1008.20 1008.48 1009.15 1009.88 1009.75 1010.18 1010.15 1010.89 1012.25 1014.61 1014.79 1014.62 1014.72 1014.79 1014.40 1014.00 1014.09 1014.22 1014.20
1021.22 1021.18 1020.94 1020.61 1020.26 1019.87 1019.51 1018.80 1018.04 1017.03 1015.85 1014.70 1013.87 1012.69 1012.04 1012.18 1012.35 1011.40 1011.45 1011.42 1011.27 1010.46 1010.53 1010.14 1009.21 1008.15 1007.97 1008.09 1008.13 1008.39 1009.04 1009.34 1009.77 1009.72 1010.11 1010.72 1011.98 1013.52 1013.90 1013.93 1014.05 1014.02 1013.53 1013.97 1014.34 1014.60 1014.41
1021.30 1021.23 1021.09 1020.85 1020.41 1020.08 1019.56 1018.90 1018.11 1017.40 1016.66 1015.95 1014.84 1013.09 1011.89 1011.75 1011.57 1011.17 1011.35 1010.98 1010.64 1010.06 1009.65 1009.31 1008.84 1008.75 1008.36 1008.04 1008.45 1008.79 1009.43 1010.09 1010.05 1010.00 1010.53 1010.83 1012.08 1013.28 1013.93 1014.18 1013.73 1013.69 1013.54 1013.68 1014.26 1014.82 1014.45
1021.18 1021.21 1021.11 1020.81 1020.46 1020.06 1019.68 1019.08 1018.32 1017.52 1016.60 1016.28 1014.76 1013.97 1013.05 1011.74 1011.38 1011.00 1010.73 1010.59 1010.34 1010.33 1009.78 1009.45 1009.09 1008.74 1008.44 1008.37 1008.48 1009.02 1009.66 1010.18 1010.39 1010.55 1010.71 1010.84 1011.86 1012.78 1013.36 1013.35 1013.56 1013.99 1013.81 1014.01 1014.75 1015.14 1014.19
1021.24 1021.18 1021.04 1020.86 1020.44 1020.04 1019.72 1019.30 1018.56 1017.71 1016.37 1015.79 1015.14 1015.26 1015.27 1013.60 1012.23 1011.72 1010.91 1010.43 1010.14 1009.94 1009.91 1009.52 1009.26 1008.99 1008.63 1008.70 1008.84 1009.09 1009.79 1010.45 1010.53 1010.78 1011.00 1011.37 1012.60 1013.32 1013.58 1013.65 1013.96 1013.97 1013.80 1013.90 1014.53 1014.30 1013.85
1021.23 1021.26 1021.06 1020.84 1020.72 1020.38 1019.94 1019.58 1019.21 1018.41 1017.00 1016.23 1016.48 1016.47 1016.23 1014.99 1013.69 1012.21 1011.16 1010.45 1010.27 1009.94 1010.05 1009.49 1009.32 1009.19 1009.07 1009.00 1009.29 1009.27 1009.59 1009.89 1010.19 1011.01 1011.25 1011.99 1013.19 1013.78 1014.12 1013.96 1013.95 1013.91 1013.56 1013.53 1013.79 1013.86 1013.41
1021.31 1021.23 1021.06 1020.89 1020.81 1020.59 1020.21 1019.95 1019.39 1018.91 1018.10 1017.58 1017.90 1017.61 1016.98 1015.66 1014.03 1012.72 1012.14 1011.46 1010.91 1010.56 1010.29 1010.10 1009.84 1009.48 1009.55 1009.89 1009.81 1009.53 1009.59 1009.67 1009.99 1010.64 1011.26 1012.13 1013.09 1013.95 1014.21 1014.03 1013.81 1013.37 1012.17 1012.37 1012.55 1012.48 1012.52
1020.94 1020.98 1020.95 1020.84 1020.74 1020.65 1020.25 1019.93 1019.84 1019.63 1019.43 1018.79 1018.72 1018.56 1017.64 1016.19 1015.03 1014.29 1013.23 1012.43 1011.69 1011.05 1010.74 1010.35 1010.18 1009.97 1010.50 1010.19 1010.08 1009.90 1010.12 1010.40 1010.64 1010.88 1011.02 1011.91 1012.93 1013.53 1013.99 1013.91 1013.24 1011.62 1011.07 1010.85 1011.33 1011.52 1011.54
1020.82 1020.74 1020.86 1020.92 1020.85 1020.66 1020.35 1020.15 1019.82 1019.64 1019.53 1019.35 1019.06 1019.05 1018.63 1017.36 1016.01 1014.96 1014.38 1013.38 1012.63 1011.59 1011.23 1010.80 1010.92 1010.65 1010.46 1010.44 1010.57 1010.70 1010.91 1010.97 1011.15 1011.28 1011.46 1011.76 1012.49 1013.19 1013.54 1013.22 1011.85 1011.19 1010.92 1010.75 1010.58 1010.79 1010.74
1020.75 1020.80 1020.88 1020.83 1020.78 1020.67 1020.55 1020.36 1019.99 1019.73 1019.61 1019.51 1018.85 1019.15 1018.93 1018.32 1016.53 1016.10 1015.57 1014.74 1013.67 1012.50 1011.71 1011.47 1011.46 1011.04 1011.06 1010.94 1011.00 1010.99 1011.06 1010.92 1011.23 1011.72 1011.94 1012.05 1012.16 1013.08 1013.22 1012.91 1011.78 1010.83 1010.51 1010.34 1010.38 1010.58 1010.24
1020.26 1020.39 1020.47 1020.58 1020.69 1020.56 1020.37 1020.25 1019.95 1019.77 1019.70 1019.65 1019.04 1018.94 1019.15 1018.55 1016.91 1016.65 1016.25 1016.03 1015.12 1014.00 1013.01 1011.91 1011.82 1011.65 1011.54 1011.36 1011.33 1011.27 1011.12 1010.88 1011.03 1011.23 1011.79 1012.12 1012.44 1012.78 1012.83 1012.56 1011.38 1010.48 1010.42 1010.54 1010.95 1011.61 1010.77
1019.76 1020.04 1020.27 1020.51 1020.68 1020.53 1020.35 1020.00 1019.66 1019.58 1019.43 1019.43 1018.89 1018.72 1019.08 1018.51 1017.36 1016.85 1016.71 1016.60 1016.36 1015.60 1014.54 1012.89 1012.27 1011.82 1011.82 1011.76 1011.49 1011.11 1011.00 1010.92 1010.77 1010.63 1010.97 1011.39 1011.78 1011.97 1012.21 1012.12 1011.37 1010.38 1010.59 1010.84 1011.10 1011.06 1011.16
1019.36 1019.83 1019.96 1020.17 1020.40 1020.36 1020.11 1019.97 1019.52 1019.24 1019.14 1019.14 1019.01 1018.58 1018.71 1018.94 1017.49 1016.62 1016.33 1016.22 1016.21 1016.55 1016.84 1015.01 1013.29 1011.65 1011.32 1011.52 1011.36 1011.22 1011.18 1010.98 1010.78 1010.81 1010.75 1010.97 1010.85 1011.06 1011.17 1011.02 1010.60 1010.36 1010.68 1010.84 1010.98 1011.40 1011.81
Wind_Speed
17 18 18 19 20 21 22 21 22 23 24 24 25 24 23 22 20 17 14 13 14 12 11 10 9 4 3 8 16 20 9 18 20 19 19 14 17 16 14 15 10 17 11 16 4 7 1
16 17 18 20 21 22 23 23 22 22 24 24 25 25 24 23 21 18 14 11 12 11 9 7 4 2 6 17 12 17 8 3 19 20 20 18 13 15 8 7 14 9 14 8 9 6 1
16 17 18 19 21 22 23 23 22 23 25 25 27 27 27 24 21 17 11 9 10 8 8 5 4 4 10 16 10 9 7 1 2 19 19 17 13 14 5 7 7 3 9 11 4 9 3
15 17 18 20 21 22 23 24 25 25 25 27 27 29 27 28 19 12 5 7 8 8 8 7 5 5 7 11 16 17 3 4 4 9 15 16 14 11 9 4 2 8 3 11 8 10 7
15 17 18 19 21 22 22 23 23 24 25 26 28 28 30 23 12 2 2 6 7 9 9 8 5 7 9 6 13 13 10 6 7 11 15 13 7 4 12 8 6 7 6 13 11 11 6
14 16 18 19 21 21 22 23 22 24 24 25 26 26 25 18 9 5 4 6 7 7 6 5 5 4 6 4 8 10 6 5 4 11 14 13 6 7 9 9 11 12 10 14 13 18 17
13 15 16 18 20 21 22 23 24 23 23 23 24 23 21 15 10 7 7 4 3 4 5 5 2 11 6 8 3 4 8 4 8 13 7 16 9 18 27 17 9 8 11 14 14 8 14
12 14 16 18 20 21 22 22 23 23 22 23 22 22 18 15 12 11 8 5 4 4 6 7 7 8 5 3 4 7 9 15 11 16 15 9 14 11 14 14 15 8 11 19 4 10 7
12 13 16 18 20 21 22 22 23 23 23 21 21 21 18 15 12 10 8 7 5 6 4 2 4 3 3 3 2 6 7 10 6 20 20 12 8 12 16 16 17 9 8 10 7 6 2
11 13 16 18 19 21 22 23 23 23 23 21 20 21 17 17 5 3 5 6 3 4 3 6 4 3 1 3 3 4 3 2 2 19 14 5 4 13 9 13 15 10 6 3 11 7 4
10 12 15 17 19 20 21 22 23 23 24 23 20 20 14 9 7 3 5 6 2 2 2 11 5 3 2 2 5 4 6 5 3 11 5 4 12 17 6 9 9 7 7 8 7 6 2
10 12 15 17 20 20 22 24 25 25 25 25 24 17 14 3 3 2 3 6 3 2 6 4 3 3 1 4 3 5 6 4 5 10 16 6 4 4 6 8 10 7 10 9 3 1 3
9 12 15 17 19 20 23 24 25 26 26 26 27 16 7 4 3 3 3 4 2 6 2 8 4 4 7 5 8 7 2 6 5 6 3 3 4 4 3 9 4 11 8 4 3 2 4
9 12 15 17 18 21 22 24 25 27 27 26 25 19 5 4 2 3 2 2 8 3 4 6 3 12 7 4 3 1 8 12 8 9 4 4 2 2 3 3 6 6 7 5 6 5 4
8 10 13 16 18 20 23 25 25 26 25 27 22 2 2 3 1 2 2 5 2 1 3 5 3 3 2 5 6 5 7 6 6 3 3 5 3 1 2 3 3 3 1 2 2 2 5
7 10 13 15 17 20 22 24 25 28 28 27 6 3 1 4 3 1 1 5 1 3 5 7 2 2 6 5 4 3 4 4 4 2 4 3 6 2 2 3 8 3 2 1 1 3 3
6 10 13 15 17 20 21 24 26 28 29 24 3 3 2 2 3 3 3 2 3 5 4 6 7 6 7 4 4 6 6 3 4 2 5 8 2 4 5 3 4 2 2 2 0 2 1
7 10 13 15 17 19 21 23 26 28 30 9 4 2 3 4 0 2 2 1 1 5 4 2 5 5 5 2 4 4 8 6 4 3 4 4 5 3 4 5 6 6 3 3 1 3 1
6 9 12 15 18 19 20 22 24 27 26 5 6 3 3 3 2 3 3 2 3 5 5 6 3 5 5 4 2 5 6 1 4 5 3 4 2 3 2 3 1 1 3 1 6 2 3
5 8 11 14 16 18 20 21 24 27 25 6 3 4 5 3 1 3 1 3 3 1 2 2 3 3 1 1 5 4 5 2 2 4 5 3 2 3 3 3 4 4 6 5 5 3 3
4 7 10 13 15 16 17 20 23 27 28 4 3 3 3 4 3 7 5 3 3 2 3 3 3 4 2 2 2 3 7 5 2 1 1 3 3 4 4 6 4 2 5 7 5 6 4
3 6 7 12 14 16 17 19 20 24 30 2 4 4 5 5 9 8 2 1 3 1 1 2 3 2 1 5 6 3 5 5 4 4 3 2 2 3 2 4 5 3 6 8 9 10 9
2 5 9 10 13 16 15 16 17 19 18 3 5 5 2 6 7 6 3 5 6 4 3 2 7 2 3 6 4 5 5 5 4 5 4 4 4 2 1 1 4 6 13 13 8 7 10
4 5 7 10 11 14 14 14 15 13 13 4 3 3 3 4 5 6 9 9 6 6 5 3 4 4 1 3 4 3 5 5 4 4 0 4 3 2 1 1 2 4 3 2 11 9 7
5 5 7 8 10 12 13 13 12 10 10 4 2 3 3 5 6 10 11 6 9 5 4 1 4 2 0 2 3 3 2 3 4 1 3 2 4 2 2 4 6 6 3 2 6 8 8
5 5 7 7 8 10 13 13 13 12 6 4 1 1 3 4 2 9 9 9 6 4 2 4 1 4 2 1 1 3 3 3 3 4 2 3 2 3 1 2 3 3 4 0 2 1 8
6 4 6 6 7 9 12 10 12 10 6 3 2 1 3 4 5 7 3 5 7 6 3 4 4 3 0 1 2 3 2 2 3 5 5 3 2 4 4 2 6 6 5 3 2 3 5
6 6 6 5 6 9 11 10 11 11 7 3 3 2 2 3 9 10 9 8 6 5 4 5 3 1 2 2 2 3 3 4 2 1 6 6 5 4 4 3 6 4 4 2 3 3 5
6 6 3 4 5 9 10 11 12 12 8 3 3 1 2 3 6 11 13 13 13 9 5 5 6 1 3 3 2 2 1 2 3 2 1 3 4 3 6 4 2 2 7 4 3 7 3
Wind_Direction
358 352 353 349 351 348 349 349 349 341 338 336 333 328 324 320 307 298 293 289 286 291 298 299 283 282 226 231 247 290 9 199 195 194 208 198 189 190 209 200 209 225 246 220 238 77 314
353 355 350 350 348 354 350 352 346 342 338 336 336 337 329 320 307 291 282 282 278 287 304 308 316 253 235 251 253 255 209 319 210 195 205 199 202 195 217 192 211 222 238 281 159 136 266
355 352 350 349 355 351 351 349 341 345 343 341 341 337 336 326 317 307 271 273 282 290 285 306 294 241 252 245 279 53 47 81 292 202 201 208 207 205 207 207 234 54 181 259 239 142 164
351 349 350 351 351 354 353 351 349 346 345 344 344 343 339 328 315 313 260 277 292 290 288 283 285 253 253 254 249 267 149 321 237 245 234 208 207 218 216 162 90 191 175 203 199 162 172
350 348 350 350 353 353 354 354 351 348 346 346 348 347 347 354 357 29 300 304 289 276 271 266 237 211 258 202 234 256 237 231 283 263 215 230 200 214 203 189 166 192 180 224 181 186 199
348 349 346 351 350 352 354 353 355 348 348 351 351 355 358 12 45 45 327 285 289 282 240 205 239 212 322 288 346 245 169 122 273 256 187 208 155 191 190 194 182 176 214 206 205 200 196
349 348 344 349 350 352 355 353 353 351 347 353 352 359 2 13 11 354 312 245 219 193 243 244 246 249 260 7 275 228 132 158 237 207 158 176 171 195 193 200 201 187 199 244 201 165 188
345 344 342 349 349 353 354 352 353 350 349 350 352 351 358 349 336 320 294 347 48 352 299 246 268 275 46 27 316 222 160 184 244 174 150 158 208 196 181 199 221 221 204 217 224 142 175
342 342 342 347 347 354 351 352 352 349 348 350 347 345 352 343 320 309 7 13 337 296 273 100 48 5 20 1 335 279 227 163 200 162 144 152 177 176 197 205 211 199 238 202 156 123 329
341 341 344 345 349 352 352 351 351 348 346 346 343 340 340 334 292 3 23 15 310 348 271 30 40 65 168 58 248 272 330 321 27 146 151 101 159 157 167 234 212 201 222 186 120 124 209
340 341 341 341 347 351 349 347 348 347 344 343 343 337 330 333 306 8 341 313 1 247 74 343 324 330 57 201 141 27 42 36 61 83 133 118 154 164 155 227 202 221 124 98 122 188 25
343 341 339 341 345 350 350 347 346 345 342 339 337 333 328 293 239 79 293 298 310 239 35 353 301 333 24 309 52 48 56 21 113 65 53 42 17 135 161 247 306 124 98 82 53 108 246
343 344 342 342 342 349 351 348 346 342 340 337 331 324 293 309 349 346 9 298 251 32 281 337 357 131 111 70 43 15 323 157 114 116 100 42 20 352 59 156 176 151 134 125 164 199 231
347 350 343 342 343 348 350 348 346 343 340 335 327 319 208 239 1 29 327 258 50 14 10 304 353 50 57 125 134 162 104 105 73 79 97 135 180 346 51 268 177 165 179 161 184 185 152
348 350 345 345 344 346 349 348 349 342 338 337 318 169 227 131 167 132 192 44 78 265 304 314 271 98 153 96 119 132 74 90 124 150 135 149 125 88 199 341 355 177 171 353 0 261 100
352 347 353 349 345 345 346 347 348 345 343 336 318 276 150 112 182 190 360 78 240 176 268 235 77 334 123 131 104 147 110 102 105 58 126 151 108 85 147 68 22 275 211 132 8 147 214
349 359 356 352 346 344 345 349 349 349 345 327 250 289 142 165 201 237 61 54 232 183 242 326 359 47 119 98 81 73 65 109 80 140 269 146 61 138 153 169 165 141 196 281 16 146 231
1 1 355 353 351 349 347 348 350 350 349 345 305 316 186 189 2 272 90 90 346 354 146 249 290 16 46 123 53 63 84 64 12 176 89 1 115 126 85 106 145 233 216 165 125 226 214
14 2 0 355 353 351 349 349 349 348 355 324 331 296 208 241 40 87 155 159 321 346 5 347 29 4 318 47 81 91 92 161 20 31 67 170 132 107 112 172 94 224 234 23 91 40 231
19 8 359 357 356 352 353 348 348 346 348 332 289 339 329 267 246 340 138 191 173 227 309 313 353 298 255 91 15 117 109 70 342 65 355 0 88 76 154 125 108 179 213 169 107 128 199
12 15 2 356 2 355 349 351 352 348 340 317 353 51 2 321 44 332 312 339 301 187 221 266 182 284 299 132 151 105 94 137 125 132 17 53 101 79 26 98 99 229 197 184 155 230 158
1 358 346 357 355 352 356 356 358 355 338 41 9 360 346 294 293 277 163 339 319 56 307 154 304 58 306 32 33 123 166 187 175 176 146 97 113 96 266 162 180 227 238 203 209 226 265
319 317 336 346 351 358 0 5 3 3 357 10 3 351 326 300 313 287 1 8 357 6 147 292 315 269 221 75 0 18 40 48 71 151 176 134 126 135 157 165 279 275 223 207 185 188 201
254 300 332 344 355 1 6 1 356 5 8 341 35 311 324 303 324 345 328 319 297 324 319 61 315 315 90 223 247 93 84 96 88 23 32 153 149 116 180 228 272 210 37 209 203 201 212
259 301 329 344 351 356 357 355 360 1 0 334 18 359 331 301 336 302 341 312 299 270 222 2 55 36 135 271 146 148 164 181 115 119 199 244 168 179 185 197 273 145 168 168 162 231 191
262 295 322 326 341 351 349 346 350 349 351 322 360 300 296 305 86 342 316 303 301 334 179 109 240 39 326 252 190 202 184 232 160 137 15 324 356 117 163 276 267 94 140 141 121 163 163
236 272 298 311 334 342 339 342 337 344 329 316 294 275 279 279 269 14 351 320 338 313 268 126 166 180 301 238 181 179 204 10 200 177 173 180 194 199 221 294 302 133 128 159 229 148 51
230 259 298 312 338 336 332 339 337 322 310 294 279 228 256 260 282 268 280 282 317 280 326 3 108 266 145 239 219 206 161 213 238 124 165 176 179 184 189 213 264 114 121 240 149 100 85
220 240 264 298 317 323 328 333 340 344 320 315 266 196 225 238 265 296 275 258 250 231 309 309 305 316 181 223 345 38 221 141 252 215 14 214 188 192 180 209 108 66 114 89 100 124 108